Regional Weather Roundup
Issued by NWS Mt. Holly, NJ

Home | Current Version | Previous Version | Text Only | Print | Product List | Glossary On
Versions: 1 2 3 4 5 6 7 8 9 10 11 12 13 14 15 16 17 18 19 20 21 22 23 24 25 26 27 28 29 30 31 32 33 34 35 36 37 38 39 40 41 42 43 44 45 46 47 48 49 50
000
ASUS41 KPHI 262012
RWRPHI

REGIONAL WEATHER ROUNDUP
NATIONAL WEATHER SERVICE MOUNT HOLLY NJ
400 PM EDT MON SEP 26 2016

NOTE:  "FAIR" INDICATES FEW OR NO CLOUDS BELOW 12,000 FEET WITH NO
SIGNIFICANT WEATHER AND/OR OBSTRUCTIONS TO VISIBILITY.

 * = STATION DOES NOT REPORT PRECIPITATION (E.G. RAIN, SNOW, ETC.)
        OR FOG.

NJZ015>026-262100-
SOUTHERN NEW JERSEY

CITY           SKY/WX    TMP DP  RH WIND       PRES   REMARKS
POMONA         CLOUDY    70  50  49 S12G20    30.09F
WILDWOOD*        N/A     73  57  57 S13       30.09F
MILLVILLE      CLOUDY    71  53  52 S8        30.08F
WRIGHTSTOWN    CLOUDY    72  49  44 S8        30.05F
MOUNT HOLLY    CLOUDY    71  46  40 S8        30.07F
TRENTON        CLOUDY    71  49  45 S12       30.06F

$$
NJZ001>014-262100-
NORTHERN NEW JERSEY

CITY           SKY/WX    TMP DP  RH WIND       PRES   REMARKS
SUSSEX         CLOUDY    69  52  54 S8        30.06F
ANDOVER*         N/A     67  52  58 SW5       30.07F
MORRISTOWN     CLOUDY    72  50  46 S9        30.07F
NEWARK         PTSUNNY   72  51  47 SE13      30.07F
TETERBORO      SUNNY     72  49  44 S14       30.06F
CALDWELL       CLOUDY    72  49  44 VRB5      30.07F
SOMERVILLE     CLOUDY    71  49  45 S6        30.04F
ALLAIRE*       SUNNY     71  49  45 SE10G16   30.10F
TOMS RIVER*    PTSUNNY   70  50  49 S9        30.09

$$
PAZ043-044-047-054-055-060>062-066>071-262100-
EASTERN PENNSYLVANIA

CITY           SKY/WX    TMP DP  RH WIND       PRES   REMARKS
PHILADELPHIA   CLOUDY    71  49  45 S10       30.07F
NORTH PHILA    CLOUDY    72  49  44 VRB6      30.08F
BLUE BELL*     CLOUDY    68  50  52 S6        30.06F
DOYLESTOWN     CLOUDY    70  51  51 S9        30.05F
QUAKERTOWN*    CLOUDY    66  54  63 S6        30.07F
PERKASIE*      CLOUDY    66  50  55 S6        30.07F
POTTSTOWN      CLOUDY    67  50  54 S6        30.08F
LANCASTER      CLOUDY    67  55  65 S8        30.04F
COATESVILLE    PTSUNNY   66  52  59 VRB6      30.08F
READING        CLOUDY    67  50  54 S7        30.05F
ALLENTOWN      CLOUDY    68  53  58 S9        30.06F
MOUNT POCONO   CLOUDY    59  50  72 S13       30.08F
HAZLETON       CLOUDY    61  50  67 SE12G21   30.08F
LEHIGHTON      CLOUDY    64  52  63 CALM      30.08S
WILKES BARRE   CLOUDY    64  52  64 S10G17    30.04F

$$
DEZALL-MDZ008-012-015-019-020-262100-
DELAWARE AND EASTERN MARYLAND

CITY           SKY/WX    TMP DP  RH WIND       PRES   REMARKS
WILMINGTON     CLOUDY    71  52  50 SE16      30.07F
DOVER          CLOUDY    72  59  64 SE9       30.05F
GEORGETOWN     PTSUNNY   74  54  49 S12       30.08F
EASTON         CLOUDY    72  54  53 S7        30.10F
ABERDEEN       CLOUDY    68  55  64 S5        30.06F
PATUXENT       CLOUDY    71  56  58 S7        30.06F
OCEAN CITY     PTSUNNY   73  59  61 VRB7      30.08F
WALLOPS ISLAND MOSUNNY   74  59  59 S13       30.09F
CAMBRIDGE      CLOUDY    68  55  64 S5        30.06F
SALISBURY      PTSUNNY   73  54  51 S9        30.07F

$$
PAZ001-021-NYZ056-072-MDZ011-DCZ001-262100-
OTHER NEARBY LOCATIONS

CITY           SKY/WX    TMP DP  RH WIND       PRES   REMARKS
HARRISBURG     LGT RAIN  63  63 100 SE10      30.02F FOG
STATE COLLEGE  CLOUDY    64  57  77 S9        29.97F
WILLIAMSPORT   CLOUDY    67  57  70 E13G20    29.97F
BINGHAMTON     CLOUDY    62  49  62 S15G24    30.00F
NEW YORK CITY  MOSUNNY   70  51  51 S7G20     30.11F
BALTIMORE      CLOUDY    67  58  72 S6        30.04F
WASHINGTON DC  CLOUDY    70  60  70 S12       30.05F

$$



USA.gov is the U.S. government's official web portal to all federal, state and local government web resources and services.